OBJECT-B - Orbit

View from above orbital plane
View from above orbital plane
View from above satellite
View from above satellite

Ground track
Ground track

The orbit data is extracted from the following two-line orbital elements,

1 33374U 08044B   13169.42888288  .00001461  00000-0  41069-3 0  3702
2 33374 049.4516 223.0849 5468574 292.9134 019.6434 04.82808638 83159
Epoch (UTC): 18 June 2013 10:17:35
Eccentricity: 0.5468574
inclination: 49.4516°
perigee height: 322 km
apogee height: 16495 km
right ascension of ascending node: 223.0849°
argument of perigee: 292.9134°
revolutions per day: 4.82808638
mean anomaly at epoch: 19.6434°
orbit number at epoch: 8315

The dashed part of the orbit path shows where the satellite is in the earth's shadow,  

Developed and maintained by Chris Peat, Heavens-Above GmbH. Please read the updated FAQ before sending e-mail. Imprint. DLR